sat.trackr.live / text

‹ back to catalog

STARLINK-30928

NORAD 58452 · 2023-183R

PAYLOAD ACTIVE UNKNOWN

§ Identity

Operator
Country
US
Launch date
2023-11-28
Launch site
AFETR
Launch vehicle
Mass (kg)
RCS (m²)

Purposes: comms

External: N2YO · Heavens-Above · Gunter

§ Orbital elements

Epoch: 2026-05-24T20:29:41.088192Z

Period
94.27 min
Inclination
43.0010°
Eccentricity
0.0002239
Mean motion
15.27582665 rev/d
Perigee alt
481.5 km
Apogee alt
484.6 km
Semi-major
6,861.2 km
B*
2.2964e-5
RAAN
331.3993°
Arg perigee
266.5613°
Mean anomaly
93.4983°
Rev number
13,837

§ Raw data

STARLINK-309281 58452U 23183R   26144.85394778  .00000370  00000+0  22964-4 0  99952 58452  43.0010 331.3993 0002239 266.5613  93.4983 15.27582665138375

JSON: /api/v1/satellites/58452 · /tle

For live sub-satellite position, see the globe view (requires WebGL).

§ Visibility from observer

Set your observer location to see the next 7 days of passes ≥ 10°. The values pass through the URL so the page stays shareable.

No JS? Fill the form by hand. The geolocation button needs JavaScript.